Year,Month,Day,Hour,Minute,Value (Times are PST for temperature in C)
2011,05,19,00,00,11.60
2011,05,19,00,01,11.60
2011,05,19,00,02,11.60
2011,05,19,00,03,11.50
2011,05,19,00,04,11.60
2011,05,19,00,05,11.50
2011,05,19,00,06,11.60
2011,05,19,00,07,11.50
2011,05,19,00,08,11.50
2011,05,19,00,09,11.50
2011,05,19,00,10,11.60
2011,05,19,00,11,11.60
2011,05,19,00,12,11.60
2011,05,19,00,13,11.60
2011,05,19,00,14,11.60
2011,05,19,00,15,11.60
2011,05,19,00,16,11.60
2011,05,19,00,17,11.60
2011,05,19,00,18,11.60
2011,05,19,00,19,11.60
2011,05,19,00,20,11.60
2011,05,19,00,21,11.60
2011,05,19,00,22,11.60
2011,05,19,00,23,11.60
2011,05,19,00,24,11.60
2011,05,19,00,25,11.60
2011,05,19,00,26,11.60
2011,05,19,00,27,11.60
2011,05,19,00,28,11.60
2011,05,19,00,29,11.60
2011,05,19,00,30,11.60
2011,05,19,00,31,11.60
2011,05,19,00,32,11.60
2011,05,19,00,33,11.50
2011,05,19,00,34,11.50
2011,05,19,00,35,11.50
2011,05,19,00,36,11.50
2011,05,19,00,37,11.40
2011,05,19,00,38,11.40
2011,05,19,00,39,11.40
2011,05,19,00,40,11.40
2011,05,19,00,41,11.40
2011,05,19,00,42,11.40
2011,05,19,00,43,11.40
2011,05,19,00,44,11.40
2011,05,19,00,45,11.40
2011,05,19,00,46,11.40
2011,05,19,00,47,11.40
2011,05,19,00,48,11.40
2011,05,19,00,49,11.40
2011,05,19,00,50,11.40
2011,05,19,00,51,11.40
2011,05,19,00,52,11.40
2011,05,19,00,53,11.40
2011,05,19,00,54,11.40
2011,05,19,00,55,11.30
2011,05,19,00,56,11.30
2011,05,19,00,57,11.30
2011,05,19,00,58,11.30
2011,05,19,00,59,11.30
2011,05,19,01,00,11.30
2011,05,19,01,01,11.30
2011,05,19,01,02,11.30
2011,05,19,01,03,11.30
2011,05,19,01,04,11.30
2011,05,19,01,05,11.30
2011,05,19,01,06,11.30
2011,05,19,01,07,11.30
2011,05,19,01,08,11.30
2011,05,19,01,09,11.30
2011,05,19,01,10,11.40
2011,05,19,01,11,11.40
2011,05,19,01,12,11.40
2011,05,19,01,13,11.30
2011,05,19,01,14,11.30
2011,05,19,01,15,11.30
2011,05,19,01,16,11.30
2011,05,19,01,17,11.30
2011,05,19,01,18,11.30
2011,05,19,01,19,11.30
2011,05,19,01,20,11.20
2011,05,19,01,21,11.20
2011,05,19,01,22,11.20
2011,05,19,01,23,11.20
2011,05,19,01,24,11.20
2011,05,19,01,25,11.10
2011,05,19,01,26,11.10
2011,05,19,01,27,11.10
2011,05,19,01,28,11.10
2011,05,19,01,29,11.10
2011,05,19,01,30,11.10
2011,05,19,01,31,11.10
2011,05,19,01,32,11.00
2011,05,19,01,33,11.00
2011,05,19,01,34,11.00
2011,05,19,01,35,10.90
2011,05,19,01,36,10.90
2011,05,19,01,37,10.90
2011,05,19,01,38,10.80
2011,05,19,01,39,10.80
2011,05,19,01,40,10.80
2011,05,19,01,41,10.80
2011,05,19,01,42,10.80
2011,05,19,01,43,10.80
2011,05,19,01,44,10.70
2011,05,19,01,45,10.70
2011,05,19,01,46,10.70
2011,05,19,01,47,10.60
2011,05,19,01,48,10.60
2011,05,19,01,49,10.50
2011,05,19,01,50,10.40
2011,05,19,01,51,10.40
2011,05,19,01,52,10.40
2011,05,19,01,53,10.30
2011,05,19,01,54,10.30
2011,05,19,01,55,10.30
2011,05,19,01,56,10.20
2011,05,19,01,57,10.20
2011,05,19,01,58,10.20
2011,05,19,01,59,10.20
2011,05,19,02,00,10.20
2011,05,19,02,01,10.20
2011,05,19,02,02,10.10
2011,05,19,02,03,10.10
2011,05,19,02,04,10.00
2011,05,19,02,05,10.00
2011,05,19,02,06,9.90
2011,05,19,02,07,9.80
2011,05,19,02,08,9.70
2011,05,19,02,09,9.60
2011,05,19,02,10,9.60
2011,05,19,02,11,9.50
2011,05,19,02,12,9.30
2011,05,19,02,13,9.20
2011,05,19,02,14,9.10
2011,05,19,02,15,9.00
2011,05,19,02,16,8.90
2011,05,19,02,17,8.80
2011,05,19,02,18,8.70
2011,05,19,02,19,8.60
2011,05,19,02,20,8.50
2011,05,19,02,21,8.50
2011,05,19,02,22,8.40
2011,05,19,02,23,8.30
2011,05,19,02,24,8.30
2011,05,19,02,25,8.20
2011,05,19,02,26,8.10
2011,05,19,02,27,8.10
2011,05,19,02,28,8.10
2011,05,19,02,29,8.00
2011,05,19,02,30,8.00
2011,05,19,02,31,7.90
2011,05,19,02,32,7.90
2011,05,19,02,33,7.90
2011,05,19,02,34,7.80
2011,05,19,02,35,7.80
2011,05,19,02,36,7.80
2011,05,19,02,37,7.80
2011,05,19,02,38,7.70
2011,05,19,02,39,7.70
2011,05,19,02,40,7.70
2011,05,19,02,41,7.60
2011,05,19,02,42,7.60
2011,05,19,02,43,7.50
2011,05,19,02,44,7.50
2011,05,19,02,45,7.50
2011,05,19,02,46,7.40
2011,05,19,02,47,7.40
2011,05,19,02,48,7.40
2011,05,19,02,49,7.50
2011,05,19,02,50,7.50
2011,05,19,02,51,7.50
2011,05,19,02,52,7.50
2011,05,19,02,53,7.50
2011,05,19,02,54,7.50
2011,05,19,02,55,7.50
2011,05,19,02,56,7.60
2011,05,19,02,57,7.60
2011,05,19,02,58,7.60
2011,05,19,02,59,7.60
2011,05,19,03,00,7.50
2011,05,19,03,01,7.50
2011,05,19,03,02,7.40
2011,05,19,03,03,7.40
2011,05,19,03,04,7.30
2011,05,19,03,05,7.30
2011,05,19,03,06,7.20
2011,05,19,03,07,7.20
2011,05,19,03,08,7.20
2011,05,19,03,09,7.20
2011,05,19,03,10,7.10
2011,05,19,03,11,7.10
2011,05,19,03,12,7.10
2011,05,19,03,13,7.10
2011,05,19,03,14,7.10
2011,05,19,03,15,7.20
2011,05,19,03,16,7.20
2011,05,19,03,17,7.20
2011,05,19,03,18,7.20
2011,05,19,03,19,7.20
2011,05,19,03,20,7.20
2011,05,19,03,21,7.20
2011,05,19,03,22,7.20
2011,05,19,03,23,7.30
2011,05,19,03,24,7.30
2011,05,19,03,25,7.30
2011,05,19,03,26,7.20
2011,05,19,03,27,7.20
2011,05,19,03,28,7.20
2011,05,19,03,29,7.20
2011,05,19,03,30,7.30
2011,05,19,03,31,7.40
2011,05,19,03,32,7.60
2011,05,19,03,33,7.70
2011,05,19,03,34,7.70
2011,05,19,03,35,7.80
2011,05,19,03,36,7.80
2011,05,19,03,37,7.90
2011,05,19,03,38,8.00
2011,05,19,03,39,8.10
2011,05,19,03,40,8.20
2011,05,19,03,41,8.30
2011,05,19,03,42,8.30
2011,05,19,03,43,8.30
2011,05,19,03,44,8.40
2011,05,19,03,45,8.50
2011,05,19,03,46,8.60
2011,05,19,03,47,8.70
2011,05,19,03,48,8.70
2011,05,19,03,49,8.80
2011,05,19,03,50,8.80
2011,05,19,03,51,8.80
2011,05,19,03,52,8.80
2011,05,19,03,53,8.80
2011,05,19,03,54,8.80
2011,05,19,03,55,8.90
2011,05,19,03,56,9.00
2011,05,19,03,57,9.00
2011,05,19,03,58,9.10
2011,05,19,03,59,9.20
2011,05,19,04,00,9.20
2011,05,19,04,01,9.20
2011,05,19,04,02,9.20
2011,05,19,04,03,9.20
2011,05,19,04,04,9.20
2011,05,19,04,05,9.20
2011,05,19,04,06,9.10
2011,05,19,04,07,9.10
2011,05,19,04,08,9.00
2011,05,19,04,09,8.90
2011,05,19,04,10,8.80
2011,05,19,04,11,8.60
2011,05,19,04,12,8.50
2011,05,19,04,13,8.40
2011,05,19,04,14,8.30
2011,05,19,04,15,8.20
2011,05,19,04,16,8.10
2011,05,19,04,17,8.10
2011,05,19,04,18,8.00
2011,05,19,04,19,7.90
2011,05,19,04,20,7.80
2011,05,19,04,21,7.70
2011,05,19,04,22,7.60
2011,05,19,04,23,7.60
2011,05,19,04,24,7.70
2011,05,19,04,25,7.70
2011,05,19,04,26,7.80
2011,05,19,04,27,7.80
2011,05,19,04,28,7.90
2011,05,19,04,29,7.90
2011,05,19,04,30,8.00
2011,05,19,04,31,8.10
2011,05,19,04,32,8.10
2011,05,19,04,33,8.10
2011,05,19,04,34,8.10
2011,05,19,04,35,8.20
2011,05,19,04,36,8.20
2011,05,19,04,37,8.20
2011,05,19,04,38,8.20
2011,05,19,04,39,8.20
2011,05,19,04,40,8.10
2011,05,19,04,41,8.00
2011,05,19,04,42,7.80
2011,05,19,04,43,7.70
2011,05,19,04,44,7.70
2011,05,19,04,45,7.60
2011,05,19,04,46,7.50
2011,05,19,04,47,7.40
2011,05,19,04,48,7.40
2011,05,19,04,49,7.30
2011,05,19,04,50,7.20
2011,05,19,04,51,7.20
2011,05,19,04,52,7.10
2011,05,19,04,53,7.00
2011,05,19,04,54,7.00
2011,05,19,04,55,6.90
2011,05,19,04,56,6.80
2011,05,19,04,57,6.70
2011,05,19,04,58,6.60
2011,05,19,04,59,6.60
2011,05,19,05,00,6.50
2011,05,19,05,01,6.40
2011,05,19,05,02,6.40
2011,05,19,05,03,6.40
2011,05,19,05,04,6.30
2011,05,19,05,05,6.30
2011,05,19,05,06,6.30
2011,05,19,05,07,6.30
2011,05,19,05,08,6.20
2011,05,19,05,09,6.20
2011,05,19,05,10,6.20
2011,05,19,05,11,6.20
2011,05,19,05,12,6.20
2011,05,19,05,13,6.20
2011,05,19,05,14,6.20
2011,05,19,05,15,6.20
2011,05,19,05,16,6.20
2011,05,19,05,17,6.20
2011,05,19,05,18,6.20
2011,05,19,05,19,6.10
2011,05,19,05,20,6.10
2011,05,19,05,21,6.10
2011,05,19,05,22,6.10
2011,05,19,05,23,6.10
2011,05,19,05,24,6.10
2011,05,19,05,25,6.10
2011,05,19,05,26,6.10
2011,05,19,05,27,6.10
2011,05,19,05,28,6.00
2011,05,19,05,29,6.00
2011,05,19,05,30,6.00
2011,05,19,05,31,6.00
2011,05,19,05,32,5.90
2011,05,19,05,33,5.90
2011,05,19,05,34,5.90
2011,05,19,05,35,5.90
2011,05,19,05,36,5.90
2011,05,19,05,37,5.90
2011,05,19,05,38,5.90
2011,05,19,05,39,5.90
2011,05,19,05,40,5.90
2011,05,19,05,41,5.90
2011,05,19,05,42,5.90
2011,05,19,05,43,5.90
2011,05,19,05,44,5.90
2011,05,19,05,45,5.90
2011,05,19,05,46,5.80
2011,05,19,05,47,5.80
2011,05,19,05,48,5.80
2011,05,19,05,49,5.80
2011,05,19,05,50,5.80
2011,05,19,05,51,5.80
2011,05,19,05,52,5.80
2011,05,19,05,53,5.80
2011,05,19,05,54,5.80
2011,05,19,05,55,5.80
2011,05,19,05,56,5.80
2011,05,19,05,57,5.80
2011,05,19,05,58,5.80
2011,05,19,05,59,5.80
2011,05,19,06,00,5.90
2011,05,19,06,01,5.90
2011,05,19,06,02,5.90
2011,05,19,06,03,5.90
2011,05,19,06,04,5.90
2011,05,19,06,05,5.80
2011,05,19,06,06,5.80
2011,05,19,06,07,5.80
2011,05,19,06,08,5.80
2011,05,19,06,09,5.80
2011,05,19,06,10,5.80
2011,05,19,06,11,5.80
2011,05,19,06,12,5.80
2011,05,19,06,13,5.80
2011,05,19,06,14,5.80
2011,05,19,06,15,5.80
2011,05,19,06,16,5.80
2011,05,19,06,17,5.80
2011,05,19,06,18,5.80
2011,05,19,06,19,5.80
2011,05,19,06,20,5.80
2011,05,19,06,21,5.80
2011,05,19,06,22,5.80
2011,05,19,06,23,5.90
2011,05,19,06,24,5.90
2011,05,19,06,25,5.90
2011,05,19,06,26,5.90
2011,05,19,06,27,6.00
2011,05,19,06,28,6.10
2011,05,19,06,29,6.20
2011,05,19,06,30,6.30
2011,05,19,06,31,6.30
2011,05,19,06,32,6.30
2011,05,19,06,33,6.30
2011,05,19,06,34,6.20
2011,05,19,06,35,6.20
2011,05,19,06,36,6.20
2011,05,19,06,37,6.20
2011,05,19,06,38,6.20
2011,05,19,06,39,6.20
2011,05,19,06,40,6.20
2011,05,19,06,41,6.20
2011,05,19,06,42,6.20
2011,05,19,06,43,6.20
2011,05,19,06,44,6.20
2011,05,19,06,45,6.30
2011,05,19,06,46,6.30
2011,05,19,06,47,6.30
2011,05,19,06,48,6.30
2011,05,19,06,49,6.40
2011,05,19,06,50,6.40
2011,05,19,06,51,6.50
2011,05,19,06,52,6.50
2011,05,19,06,53,6.60
2011,05,19,06,54,6.70
2011,05,19,06,55,6.70
2011,05,19,06,56,6.80
2011,05,19,06,57,6.90
2011,05,19,06,58,7.00
2011,05,19,06,59,7.10
2011,05,19,07,00,7.20
2011,05,19,07,01,7.20
2011,05,19,07,02,7.30
2011,05,19,07,03,7.40
2011,05,19,07,04,7.50
2011,05,19,07,05,7.50
2011,05,19,07,06,7.60
2011,05,19,07,07,7.70
2011,05,19,07,08,7.70
2011,05,19,07,09,7.80
2011,05,19,07,10,7.90
2011,05,19,07,11,8.00
2011,05,19,07,12,8.00
2011,05,19,07,13,8.10
2011,05,19,07,14,8.20
2011,05,19,07,15,8.30
2011,05,19,07,16,8.40
2011,05,19,07,17,8.50
2011,05,19,07,18,8.60
2011,05,19,07,19,8.70
2011,05,19,07,20,8.80
2011,05,19,07,21,8.80
2011,05,19,07,22,8.90
2011,05,19,07,23,9.00
2011,05,19,07,24,9.00
2011,05,19,07,25,9.10
2011,05,19,07,26,9.20
2011,05,19,07,27,9.20
2011,05,19,07,28,9.30
2011,05,19,07,29,9.30
2011,05,19,07,30,9.40
2011,05,19,07,31,9.40
2011,05,19,07,32,9.50
2011,05,19,07,33,9.50
2011,05,19,07,34,9.60
2011,05,19,07,35,9.60
2011,05,19,07,36,9.70
2011,05,19,07,37,9.80
2011,05,19,07,38,9.80
2011,05,19,07,39,9.80
2011,05,19,07,40,9.90
2011,05,19,07,41,10.00
2011,05,19,07,42,10.10
2011,05,19,07,43,10.10
2011,05,19,07,44,10.20
2011,05,19,07,45,10.20
2011,05,19,07,46,10.30
2011,05,19,07,47,10.30
2011,05,19,07,48,10.40
2011,05,19,07,49,10.40
2011,05,19,07,50,10.50
2011,05,19,07,51,10.60
2011,05,19,07,52,10.70
2011,05,19,07,53,10.70
2011,05,19,07,54,10.80
2011,05,19,07,55,10.80
2011,05,19,07,56,10.90
2011,05,19,07,57,10.90
2011,05,19,07,58,11.00
2011,05,19,07,59,11.10
2011,05,19,08,00,11.10
2011,05,19,08,01,11.10
2011,05,19,08,02,11.20
2011,05,19,08,03,11.20
2011,05,19,08,04,11.20
2011,05,19,08,05,11.30
2011,05,19,08,06,11.30
2011,05,19,08,07,11.30
2011,05,19,08,08,11.30
2011,05,19,08,09,11.40
2011,05,19,08,10,11.40
2011,05,19,08,11,11.50
2011,05,19,08,12,11.60
2011,05,19,08,13,11.60
2011,05,19,08,14,11.60
2011,05,19,08,15,11.70
2011,05,19,08,16,11.70
2011,05,19,08,17,11.70
2011,05,19,08,18,11.80
2011,05,19,08,19,11.80
2011,05,19,08,20,11.80
2011,05,19,08,21,11.80
2011,05,19,08,22,11.80
2011,05,19,08,23,11.90
2011,05,19,08,24,11.90
2011,05,19,08,25,11.90
2011,05,19,08,26,12.00
2011,05,19,08,27,12.00
2011,05,19,08,28,12.10
2011,05,19,08,29,12.10
2011,05,19,08,30,12.20
2011,05,19,08,31,12.20
2011,05,19,08,32,12.20
2011,05,19,08,33,12.20
2011,05,19,08,34,12.20
2011,05,19,08,35,12.20
2011,05,19,08,36,12.20
2011,05,19,08,37,12.20
2011,05,19,08,38,12.20
2011,05,19,08,39,12.20
2011,05,19,08,40,12.30
2011,05,19,08,41,12.30
2011,05,19,08,42,12.30
2011,05,19,08,43,12.40
2011,05,19,08,44,12.40
2011,05,19,08,45,12.50
2011,05,19,08,46,12.60
2011,05,19,08,47,12.70
2011,05,19,08,48,12.70
2011,05,19,08,49,12.80
2011,05,19,08,50,12.80
2011,05,19,08,51,12.80
2011,05,19,08,52,12.80
2011,05,19,08,53,12.80
2011,05,19,08,54,12.80
2011,05,19,08,55,12.80
2011,05,19,08,56,12.80
2011,05,19,08,57,12.70
2011,05,19,08,58,12.70
2011,05,19,08,59,12.70
2011,05,19,09,00,12.70
2011,05,19,09,01,12.80
2011,05,19,09,02,12.80
2011,05,19,09,03,12.80
2011,05,19,09,04,12.80
2011,05,19,09,05,12.90
2011,05,19,09,06,12.90
2011,05,19,09,07,12.90
2011,05,19,09,08,12.90
2011,05,19,09,09,12.80
2011,05,19,09,10,12.70
2011,05,19,09,11,12.70
2011,05,19,09,12,12.70
2011,05,19,09,13,12.80
2011,05,19,09,14,12.70
2011,05,19,09,15,12.70
2011,05,19,09,16,12.70
2011,05,19,09,17,12.70
2011,05,19,09,18,12.70
2011,05,19,09,19,12.70
2011,05,19,09,20,12.70
2011,05,19,09,21,12.70
2011,05,19,09,22,12.80
2011,05,19,09,23,12.80
2011,05,19,09,24,12.90
2011,05,19,09,25,12.90
2011,05,19,09,26,12.90
2011,05,19,09,27,12.90
2011,05,19,09,28,12.90
2011,05,19,09,29,13.00
2011,05,19,09,30,13.00
2011,05,19,09,31,13.10
2011,05,19,09,32,13.10
2011,05,19,09,33,13.10
2011,05,19,09,34,13.10
2011,05,19,09,35,13.10
2011,05,19,09,36,13.10
2011,05,19,09,37,13.10
2011,05,19,09,38,13.10
2011,05,19,09,39,13.10
2011,05,19,09,40,13.10
2011,05,19,09,41,13.20
2011,05,19,09,42,13.20
2011,05,19,09,43,13.30
2011,05,19,09,44,13.30
2011,05,19,09,45,13.30
2011,05,19,09,46,13.30
2011,05,19,09,47,13.30
2011,05,19,09,48,13.30
2011,05,19,09,49,13.30
2011,05,19,09,50,13.30
2011,05,19,09,51,13.40
2011,05,19,09,52,13.40
2011,05,19,09,53,13.40
2011,05,19,09,54,13.50
2011,05,19,09,55,13.50
2011,05,19,09,56,13.50
2011,05,19,09,57,13.60
2011,05,19,09,58,13.70
2011,05,19,09,59,13.70
2011,05,19,10,00,13.70
2011,05,19,10,01,13.70
2011,05,19,10,02,13.70
2011,05,19,10,03,13.70
2011,05,19,10,04,13.80
2011,05,19,10,05,13.80
2011,05,19,10,06,13.80
2011,05,19,10,07,13.90
2011,05,19,10,08,13.90
2011,05,19,10,09,14.00
2011,05,19,10,10,14.00
2011,05,19,10,11,14.10
2011,05,19,10,12,14.30
2011,05,19,10,13,14.40
2011,05,19,10,14,14.50
2011,05,19,10,15,14.50
2011,05,19,10,16,14.60
2011,05,19,10,17,14.60
2011,05,19,10,18,14.70
2011,05,19,10,19,14.80
2011,05,19,10,20,14.90
2011,05,19,10,21,14.90
2011,05,19,10,22,15.00
2011,05,19,10,23,15.00
2011,05,19,10,24,15.00
2011,05,19,10,25,15.00
2011,05,19,10,26,15.10
2011,05,19,10,27,15.20
2011,05,19,10,28,15.30
2011,05,19,10,29,15.30
2011,05,19,10,30,15.40
2011,05,19,10,31,15.50
2011,05,19,10,32,15.50
2011,05,19,10,33,15.50
2011,05,19,10,34,15.40
2011,05,19,10,35,15.40
2011,05,19,10,36,15.40
2011,05,19,10,37,15.30
2011,05,19,10,38,15.00
2011,05,19,10,39,15.00
2011,05,19,10,40,14.80
2011,05,19,10,41,14.70
2011,05,19,10,42,14.70
2011,05,19,10,43,14.70
2011,05,19,10,44,14.80
2011,05,19,10,45,14.70
2011,05,19,10,46,14.60
2011,05,19,10,47,14.50
2011,05,19,10,48,14.50
2011,05,19,10,49,14.50
2011,05,19,10,50,14.50
2011,05,19,10,51,14.60
2011,05,19,10,52,14.70
2011,05,19,10,53,14.70
2011,05,19,10,54,14.70
2011,05,19,10,55,14.70
2011,05,19,10,56,14.70
2011,05,19,10,57,14.70
2011,05,19,10,58,14.70
2011,05,19,10,59,14.70
2011,05,19,11,00,14.70
2011,05,19,11,01,14.70
2011,05,19,11,02,14.70
2011,05,19,11,03,14.70
2011,05,19,11,04,14.70
2011,05,19,11,05,14.70
2011,05,19,11,06,14.70
2011,05,19,11,07,14.70
2011,05,19,11,08,14.70
2011,05,19,11,09,14.70
2011,05,19,11,10,14.60
2011,05,19,11,11,14.60
2011,05,19,11,12,14.60
2011,05,19,11,13,14.60
2011,05,19,11,14,14.60
2011,05,19,11,15,14.60
2011,05,19,11,16,14.60
2011,05,19,11,17,14.60
2011,05,19,11,18,14.60
2011,05,19,11,19,14.60
2011,05,19,11,20,14.60
2011,05,19,11,21,14.60
2011,05,19,11,22,14.60
2011,05,19,11,23,14.70
2011,05,19,11,24,14.70
2011,05,19,11,25,14.70
2011,05,19,11,26,14.70
2011,05,19,11,27,14.60
2011,05,19,11,28,14.60
2011,05,19,11,29,14.60
2011,05,19,11,30,14.70
2011,05,19,11,31,14.80
2011,05,19,11,32,14.80
2011,05,19,11,33,14.80
2011,05,19,11,34,14.90
2011,05,19,11,35,15.00
2011,05,19,11,36,15.00
2011,05,19,11,37,15.20
2011,05,19,11,38,15.40
2011,05,19,11,39,15.50
2011,05,19,11,40,15.60
2011,05,19,11,41,15.70
2011,05,19,11,42,15.70
2011,05,19,11,43,15.70
2011,05,19,11,44,15.70
2011,05,19,11,45,15.80
2011,05,19,11,46,15.80
2011,05,19,11,47,15.80
2011,05,19,11,48,15.70
2011,05,19,11,49,15.70
2011,05,19,11,50,15.70
2011,05,19,11,51,15.70
2011,05,19,11,52,15.80
2011,05,19,11,53,15.90
2011,05,19,11,54,16.00
2011,05,19,11,55,16.10
2011,05,19,11,56,16.20
2011,05,19,11,57,16.20
2011,05,19,11,58,16.20
2011,05,19,11,59,16.20
2011,05,19,12,00,16.20
2011,05,19,12,01,16.10
2011,05,19,12,02,16.10
2011,05,19,12,03,16.10
2011,05,19,12,04,16.20
2011,05,19,12,05,16.20
2011,05,19,12,06,16.30
2011,05,19,12,07,16.30
2011,05,19,12,08,16.30
2011,05,19,12,09,16.30
2011,05,19,12,10,16.40
2011,05,19,12,11,16.40
2011,05,19,12,12,16.40
2011,05,19,12,13,16.50
2011,05,19,12,14,16.60
2011,05,19,12,15,16.60
2011,05,19,12,16,16.60
2011,05,19,12,17,16.50
2011,05,19,12,18,16.50
2011,05,19,12,19,16.50
2011,05,19,12,20,16.50
2011,05,19,12,21,16.60
2011,05,19,12,22,16.50
2011,05,19,12,23,16.40
2011,05,19,12,24,16.20
2011,05,19,12,25,16.20
2011,05,19,12,26,16.10
2011,05,19,12,27,16.10
2011,05,19,12,28,16.10
2011,05,19,12,29,16.00
2011,05,19,12,30,15.90
2011,05,19,12,31,15.80
2011,05,19,12,32,15.80
2011,05,19,12,33,15.90
2011,05,19,12,34,15.90
2011,05,19,12,35,16.00
2011,05,19,12,36,16.00
2011,05,19,12,37,16.10
2011,05,19,12,38,16.10
2011,05,19,12,39,16.20
2011,05,19,12,40,16.30
2011,05,19,12,41,16.30
2011,05,19,12,42,16.30
2011,05,19,12,43,16.40
2011,05,19,12,44,16.40
2011,05,19,12,45,16.40
2011,05,19,12,46,16.40
2011,05,19,12,47,16.50
2011,05,19,12,48,16.60
2011,05,19,12,49,16.50
2011,05,19,12,50,16.50
2011,05,19,12,51,16.40
2011,05,19,12,52,16.40
2011,05,19,12,53,16.50
2011,05,19,12,54,16.60
2011,05,19,12,55,16.70
2011,05,19,12,56,16.80
2011,05,19,12,57,16.90
2011,05,19,12,58,16.90
2011,05,19,12,59,17.00
2011,05,19,13,00,17.10
2011,05,19,13,01,17.00
2011,05,19,13,02,17.10
2011,05,19,13,03,17.10
2011,05,19,13,04,17.20
2011,05,19,13,05,17.30
2011,05,19,13,06,17.40
2011,05,19,13,07,17.50
2011,05,19,13,08,17.70
2011,05,19,13,09,17.80
2011,05,19,13,10,17.80
2011,05,19,13,11,17.80
2011,05,19,13,12,17.80
2011,05,19,13,13,17.90
2011,05,19,13,14,17.90
2011,05,19,13,15,18.00
2011,05,19,13,16,18.10
2011,05,19,13,17,18.20
2011,05,19,13,18,18.20
2011,05,19,13,19,18.20
2011,05,19,13,20,18.20
2011,05,19,13,21,18.30
2011,05,19,13,22,18.30
2011,05,19,13,23,18.30
2011,05,19,13,24,18.30
2011,05,19,13,25,18.30
2011,05,19,13,26,18.40
2011,05,19,13,27,18.50
2011,05,19,13,28,18.60
2011,05,19,13,29,18.80
2011,05,19,13,30,18.90
2011,05,19,13,31,18.90
2011,05,19,13,32,19.00
2011,05,19,13,33,19.00
2011,05,19,13,34,18.90
2011,05,19,13,35,18.90
2011,05,19,13,36,18.80
2011,05,19,13,37,18.70
2011,05,19,13,38,18.50
2011,05,19,13,39,18.50
2011,05,19,13,40,18.40
2011,05,19,13,41,18.40
2011,05,19,13,42,18.30
2011,05,19,13,43,18.40
2011,05,19,13,44,18.40
2011,05,19,13,45,18.40
2011,05,19,13,46,18.50
2011,05,19,13,47,18.50
2011,05,19,13,48,18.60
2011,05,19,13,49,18.60
2011,05,19,13,50,18.60
2011,05,19,13,51,18.70
2011,05,19,13,52,18.70
2011,05,19,13,53,18.70
2011,05,19,13,54,18.60
2011,05,19,13,55,18.60
2011,05,19,13,56,18.60
2011,05,19,13,57,18.60
2011,05,19,13,58,18.60
2011,05,19,13,59,18.60
2011,05,19,14,00,18.50
2011,05,19,14,01,18.50
2011,05,19,14,02,18.60
2011,05,19,14,03,18.60
2011,05,19,14,04,18.80
2011,05,19,14,05,18.90
2011,05,19,14,06,19.00
2011,05,19,14,07,19.10
2011,05,19,14,08,19.20
2011,05,19,14,09,19.20
2011,05,19,14,10,19.20
2011,05,19,14,11,19.20
2011,05,19,14,12,19.20
2011,05,19,14,13,19.10
2011,05,19,14,14,19.10
2011,05,19,14,15,19.00
2011,05,19,14,16,19.00
2011,05,19,14,17,19.00
2011,05,19,14,18,19.10
2011,05,19,14,19,19.20
2011,05,19,14,20,19.30
2011,05,19,14,21,19.40
2011,05,19,14,22,19.40
2011,05,19,14,23,19.30
2011,05,19,14,24,19.30
2011,05,19,14,25,19.40
2011,05,19,14,26,19.40
2011,05,19,14,27,19.40
2011,05,19,14,28,19.40
2011,05,19,14,29,19.40
2011,05,19,14,30,19.30
2011,05,19,14,31,19.30
2011,05,19,14,32,19.40
2011,05,19,14,33,19.50
2011,05,19,14,34,19.50
2011,05,19,14,35,19.60
2011,05,19,14,36,19.50
2011,05,19,14,37,19.40
2011,05,19,14,38,19.40
2011,05,19,14,39,19.30
2011,05,19,14,40,19.30
2011,05,19,14,41,19.30
2011,05,19,14,42,19.20
2011,05,19,14,43,19.20
2011,05,19,14,44,19.30
2011,05,19,14,45,19.30
2011,05,19,14,46,19.20
2011,05,19,14,47,19.10
2011,05,19,14,48,19.00
2011,05,19,14,49,19.00
2011,05,19,14,50,18.90
2011,05,19,14,51,18.90
2011,05,19,14,52,18.80
2011,05,19,14,53,18.80
2011,05,19,14,54,18.80
2011,05,19,14,55,18.80
2011,05,19,14,56,18.80
2011,05,19,14,57,18.80
2011,05,19,14,58,18.80
2011,05,19,14,59,18.70
2011,05,19,15,00,18.80
2011,05,19,15,01,18.80
2011,05,19,15,02,18.90
2011,05,19,15,03,18.90
2011,05,19,15,04,18.90
2011,05,19,15,05,19.00
2011,05,19,15,06,19.10
2011,05,19,15,07,19.00
2011,05,19,15,08,18.90
2011,05,19,15,09,19.00
2011,05,19,15,10,19.10
2011,05,19,15,11,19.20
2011,05,19,15,12,19.40
2011,05,19,15,13,19.50
2011,05,19,15,14,19.70
2011,05,19,15,15,19.90
2011,05,19,15,16,20.10
2011,05,19,15,17,20.20
2011,05,19,15,18,20.20
2011,05,19,15,19,20.20
2011,05,19,15,20,20.20
2011,05,19,15,21,20.20
2011,05,19,15,22,20.10
2011,05,19,15,23,20.10
2011,05,19,15,24,20.00
2011,05,19,15,25,19.90
2011,05,19,15,26,19.80
2011,05,19,15,27,19.70
2011,05,19,15,28,19.70
2011,05,19,15,29,19.70
2011,05,19,15,30,19.60
2011,05,19,15,31,19.50
2011,05,19,15,32,19.30
2011,05,19,15,33,19.30
2011,05,19,15,34,19.20
2011,05,19,15,35,19.10
2011,05,19,15,36,19.10
2011,05,19,15,37,19.10
2011,05,19,15,38,19.10
2011,05,19,15,39,19.10
2011,05,19,15,40,19.10
2011,05,19,15,41,19.10
2011,05,19,15,42,19.30
2011,05,19,15,43,19.40
2011,05,19,15,44,19.60
2011,05,19,15,45,19.70
2011,05,19,15,46,19.70
2011,05,19,15,47,19.80
2011,05,19,15,48,19.90
2011,05,19,15,49,19.90
2011,05,19,15,50,20.00
2011,05,19,15,51,20.00
2011,05,19,15,52,20.10
2011,05,19,15,53,20.00
2011,05,19,15,54,20.00
2011,05,19,15,55,19.90
2011,05,19,15,56,19.90
2011,05,19,15,57,20.00
2011,05,19,15,58,20.00
2011,05,19,15,59,20.00
2011,05,19,16,00,20.00
2011,05,19,16,01,20.00
2011,05,19,16,02,19.90
2011,05,19,16,03,19.80
2011,05,19,16,04,19.70
2011,05,19,16,05,19.60
2011,05,19,16,06,19.60
2011,05,19,16,07,19.60
2011,05,19,16,08,19.60
2011,05,19,16,09,19.70
2011,05,19,16,10,19.70
2011,05,19,16,11,19.70
2011,05,19,16,12,19.70
2011,05,19,16,13,19.80
2011,05,19,16,14,20.00
2011,05,19,16,15,20.10
2011,05,19,16,16,20.20
2011,05,19,16,17,20.30
2011,05,19,16,18,20.40
2011,05,19,16,19,20.40
2011,05,19,16,20,20.40
2011,05,19,16,21,20.50
2011,05,19,16,22,20.60
2011,05,19,16,23,20.70
2011,05,19,16,24,20.60
2011,05,19,16,25,20.60
2011,05,19,16,26,20.60
2011,05,19,16,27,20.70
2011,05,19,16,28,20.70
2011,05,19,16,29,20.50
2011,05,19,16,30,20.40
2011,05,19,16,31,20.30
2011,05,19,16,32,20.40
2011,05,19,16,33,20.40
2011,05,19,16,34,20.30
2011,05,19,16,35,20.30
2011,05,19,16,36,20.20
2011,05,19,16,37,20.30
2011,05,19,16,38,20.30
2011,05,19,16,39,20.40
2011,05,19,16,40,20.30
2011,05,19,16,41,20.20
2011,05,19,16,42,20.20
2011,05,19,16,43,20.20
2011,05,19,16,44,20.10
2011,05,19,16,45,20.00
2011,05,19,16,46,19.70
2011,05,19,16,47,19.40
2011,05,19,16,48,19.30
2011,05,19,16,49,19.10
2011,05,19,16,50,19.00
2011,05,19,16,51,18.90
2011,05,19,16,52,18.90
2011,05,19,16,53,18.80
2011,05,19,16,54,18.60
2011,05,19,16,55,18.60
2011,05,19,16,56,18.50
2011,05,19,16,57,18.50
2011,05,19,16,58,18.50
2011,05,19,16,59,18.50
2011,05,19,17,00,18.50
2011,05,19,17,01,18.50
2011,05,19,17,02,18.40
2011,05,19,17,03,18.30
2011,05,19,17,04,18.20
2011,05,19,17,05,18.10
2011,05,19,17,06,18.10
2011,05,19,17,07,18.10
2011,05,19,17,08,18.10
2011,05,19,17,09,18.10
2011,05,19,17,10,18.20
2011,05,19,17,11,18.30
2011,05,19,17,12,18.30
2011,05,19,17,13,18.30
2011,05,19,17,14,18.20
2011,05,19,17,15,18.20
2011,05,19,17,16,18.10
2011,05,19,17,17,18.00
2011,05,19,17,18,17.90
2011,05,19,17,19,17.80
2011,05,19,17,20,17.70
2011,05,19,17,21,17.50
2011,05,19,17,22,17.30
2011,05,19,17,23,17.20
2011,05,19,17,24,17.10
2011,05,19,17,25,17.10
2011,05,19,17,26,17.00
2011,05,19,17,27,17.00
2011,05,19,17,28,16.90
2011,05,19,17,29,16.80
2011,05,19,17,30,16.70
2011,05,19,17,31,16.60
2011,05,19,17,32,16.60
2011,05,19,17,33,16.50
2011,05,19,17,34,16.40